Location: ??????
(56.0120°N, 39.1740°E)
Time: 02:11:13
(UTC+00:00)

Okean-O - Pass Details

Date: 14 April 2026
Orbit: 627 x 629 km, 97.9° (Epoch: 20 May)

Event Time Altitude Azimuth Distance (km) Brightness Sun altitude
Exits shadow 18:05:40 12° 169° (S) 1,887 4.6 -12.7°
Maximum altitude 18:09:45 77° 255° (WSW) 653 2.7 -13.1°
Drops below altitude 10° 18:14:10 10° 342° (NNW) 2,023 6.2 -13.6°
Sets 18:16:22 0° 344° (NNW) 2,935 7.1 -13.8°
